TimeCST,TemperatureF,Dew PointF,Humidity,Sea Level PressureIn,VisibilityMPH,Wind Direction,Wind SpeedMPH,Gust SpeedMPH,PrecipitationIn,Events,Conditions,WindDirDegrees,DateUTC
12:15 AM,14.9,12.0,88,30.21,10.0,West,5.8,-,N/A,,Clear,260,2013-01-21 06:15:00
12:35 AM,13.8,10.6,87,30.21,10.0,West,8.1,-,N/A,,Clear,260,2013-01-21 06:35:00
12:55 AM,13.3,10.6,89,30.20,10.0,West,9.2,-,N/A,,Clear,270,2013-01-21 06:55:00
1:15 AM,13.1,10.0,88,30.20,10.0,WNW,8.1,-,N/A,,Clear,290,2013-01-21 07:15:00
1:35 AM,14.7,12.0,89,30.19,10.0,West,8.1,-,N/A,,Clear,260,2013-01-21 07:35:00
1:55 AM,14.0,11.1,88,30.19,10.0,WSW,6.9,-,N/A,,Clear,240,2013-01-21 07:55:00
2:15 AM,12.6,9.7,88,30.19,10.0,WSW,8.1,-,N/A,,Clear,250,2013-01-21 08:15:00
2:35 AM,12.7,10.0,89,30.18,10.0,West,8.1,-,N/A,,Clear,260,2013-01-21 08:35:00
2:55 AM,13.1,10.2,88,30.18,10.0,West,6.9,-,N/A,,Clear,260,2013-01-21 08:55:00
3:15 AM,13.1,10.4,89,30.18,10.0,WSW,9.2,-,N/A,,Clear,250,2013-01-21 09:15:00
3:35 AM,15.3,12.2,88,30.17,10.0,West,9.2,-,N/A,,Clear,260,2013-01-21 09:35:00
3:55 AM,17.2,14.0,87,30.17,10.0,WSW,12.7,-,N/A,,Clear,250,2013-01-21 09:55:00
4:15 AM,18.1,14.4,85,30.17,10.0,West,11.5,-,N/A,,Clear,260,2013-01-21 10:15:00
4:35 AM,16.7,13.1,86,30.16,10.0,West,5.8,-,N/A,,Clear,270,2013-01-21 10:35:00
4:55 AM,14.9,11.7,87,30.15,10.0,WNW,8.1,-,N/A,,Clear,290,2013-01-21 10:55:00
5:15 AM,14.7,11.7,88,30.14,10.0,West,8.1,-,N/A,,Clear,280,2013-01-21 11:15:00
5:35 AM,13.6,10.4,87,30.14,10.0,West,6.9,-,N/A,,Clear,260,2013-01-21 11:35:00
5:55 AM,15.8,12.6,87,30.13,10.0,WSW,9.2,-,N/A,,Clear,250,2013-01-21 11:55:00
6:15 AM,15.6,12.0,86,30.13,10.0,WSW,10.4,-,N/A,,Clear,240,2013-01-21 12:15:00
6:35 AM,15.8,12.2,86,30.12,10.0,WSW,10.4,-,N/A,,Clear,240,2013-01-21 12:35:00
6:55 AM,15.6,12.0,86,30.12,10.0,WSW,10.4,-,N/A,,Clear,250,2013-01-21 12:55:00
7:15 AM,14.9,11.5,86,30.11,10.0,WSW,9.2,-,N/A,,Clear,250,2013-01-21 13:15:00
7:35 AM,15.6,10.9,82,30.10,10.0,WSW,12.7,-,N/A,,Clear,240,2013-01-21 13:35:00
7:55 AM,16.2,10.9,80,30.10,10.0,WSW,8.1,-,N/A,,Clear,250,2013-01-21 13:55:00
8:15 AM,18.3,12.9,79,30.08,10.0,WSW,13.8,-,N/A,,Clear,250,2013-01-21 14:15:00
8:35 AM,20.5,13.6,75,30.08,10.0,West,15.0,-,N/A,,Clear,260,2013-01-21 14:35:00
8:55 AM,23.4,16.0,73,30.08,10.0,West,15.0,-,N/A,,Clear,260,2013-01-21 14:55:00
9:15 AM,26.1,18.7,74,30.08,10.0,West,13.8,18.4,N/A,,Clear,260,2013-01-21 15:15:00
9:35 AM,28.4,19.9,71,30.08,10.0,West,13.8,-,N/A,,Clear,260,2013-01-21 15:35:00
9:55 AM,31.5,21.6,67,30.09,10.0,West,10.4,-,N/A,,Clear,270,2013-01-21 15:55:00
10:15 AM,35.1,19.2,53,30.10,10.0,West,13.8,19.6,N/A,,Clear,280,2013-01-21 16:15:00
10:35 AM,37.2,18.1,46,30.11,10.0,WNW,15.0,-,N/A,,Clear,290,2013-01-21 16:35:00
10:55 AM,37.4,19.0,48,30.12,10.0,WNW,12.7,-,N/A,,Clear,290,2013-01-21 16:55:00
11:15 AM,40.5,16.7,38,30.13,10.0,NW,10.4,-,N/A,,Clear,310,2013-01-21 17:15:00
11:35 AM,39.7,18.0,42,30.13,10.0,NNE,11.5,23.0,N/A,,Clear,20,2013-01-21 17:35:00
11:55 AM,37.8,15.6,41,30.12,10.0,NNE,9.2,-,N/A,,Clear,20,2013-01-21 17:55:00
12:15 PM,40.3,14.5,35,30.11,10.0,NNE,5.8,-,N/A,,Clear,30,2013-01-21 18:15:00
12:35 PM,42.4,14.2,32,30.10,10.0,NNW,6.9,-,N/A,,Clear,330,2013-01-21 18:35:00
12:55 PM,46.0,13.6,27,30.08,10.0,NW,6.9,-,N/A,,Clear,320,2013-01-21 18:55:00
1:15 PM,48.6,13.8,25,30.06,10.0,NW,16.1,19.6,N/A,,Clear,310,2013-01-21 19:15:00
1:35 PM,51.1,12.9,22,30.05,10.0,NW,20.7,25.3,N/A,,Clear,310,2013-01-21 19:35:00
1:55 PM,51.8,12.4,21,30.04,10.0,NW,21.9,29.9,N/A,,Clear,310,2013-01-21 19:55:00
2:15 PM,51.4,12.2,21,30.04,10.0,NW,19.6,28.8,N/A,,Clear,320,2013-01-21 20:15:00
2:35 PM,52.0,12.0,20,30.03,10.0,NW,17.3,27.6,N/A,,Clear,310,2013-01-21 20:35:00
2:55 PM,51.8,11.3,20,30.03,10.0,NW,18.4,27.6,N/A,,Clear,320,2013-01-21 20:55:00
3:15 PM,51.8,11.3,20,30.02,10.0,NNW,18.4,26.5,N/A,,Clear,330,2013-01-21 21:15:00
3:35 PM,51.8,10.9,19,30.02,10.0,NW,19.6,28.8,N/A,,Clear,320,2013-01-21 21:35:00
3:55 PM,51.8,10.4,19,30.03,10.0,NW,18.4,26.5,N/A,,Scattered Clouds,320,2013-01-21 21:55:00
4:15 PM,51.1,10.4,20,30.02,10.0,NW,17.3,27.6,N/A,,Scattered Clouds,320,2013-01-21 22:15:00
4:35 PM,50.5,10.8,20,30.02,10.0,NW,15.0,23.0,N/A,,Clear,320,2013-01-21 22:35:00
5:15 PM,49.5,11.3,22,30.02,10.0,NW,16.1,21.9,N/A,,Clear,310,2013-01-21 23:15:00
5:35 PM,47.7,10.9,23,30.02,10.0,NW,9.2,-,N/A,,Scattered Clouds,320,2013-01-21 23:35:00
5:55 PM,44.2,11.1,26,30.02,10.0,NNW,6.9,-,N/A,,Clear,330,2013-01-21 23:55:00
6:15 PM,42.4,11.3,28,30.02,10.0,NNW,6.9,-,N/A,,Clear,330,2013-01-22 00:15:00
6:35 PM,41.2,11.3,30,30.03,10.0,NW,3.5,-,N/A,,Scattered Clouds,320,2013-01-22 00:35:00
6:55 PM,39.7,11.3,31,30.04,10.0,WNW,6.9,-,N/A,,Scattered Clouds,300,2013-01-22 00:55:00
7:15 PM,36.0,10.4,35,30.03,10.0,WNW,6.9,-,N/A,,Scattered Clouds,300,2013-01-22 01:15:00
7:35 PM,35.8,9.9,34,30.03,10.0,NW,4.6,-,N/A,,Mostly Cloudy,310,2013-01-22 01:35:00
7:55 PM,31.3,10.4,42,30.03,10.0,WNW,9.2,-,N/A,,Mostly Cloudy,290,2013-01-22 01:55:00
8:15 PM,30.9,10.9,43,30.02,10.0,WNW,10.4,-,N/A,,Scattered Clouds,300,2013-01-22 02:15:00
8:35 PM,34.5,9.9,36,30.02,10.0,WNW,10.4,-,N/A,,Clear,300,2013-01-22 02:35:00
8:55 PM,29.3,10.2,45,30.02,10.0,WSW,10.4,-,N/A,,Clear,250,2013-01-22 02:55:00
9:15 PM,30.7,10.2,42,30.03,10.0,West,6.9,-,N/A,,Clear,280,2013-01-22 03:15:00
9:35 PM,32.4,10.2,40,30.02,10.0,West,13.8,-,N/A,,Clear,270,2013-01-22 03:35:00
9:55 PM,34.9,10.2,36,30.03,10.0,West,12.7,-,N/A,,Clear,280,2013-01-22 03:55:00
10:15 PM,33.6,10.4,38,30.02,10.0,West,10.4,-,N/A,,Clear,270,2013-01-22 04:15:00
10:35 PM,31.1,10.4,42,30.02,10.0,West,9.2,-,N/A,,Clear,260,2013-01-22 04:35:00
10:55 PM,29.3,10.4,45,30.02,10.0,West,9.2,-,N/A,,Clear,270,2013-01-22 04:55:00
11:15 PM,29.3,10.4,45,30.02,10.0,West,12.7,-,N/A,,Clear,260,2013-01-22 05:15:00
11:35 PM,31.1,9.5,41,30.03,10.0,West,12.7,-,N/A,,Clear,270,2013-01-22 05:35:00
11:55 PM,32.9,8.6,36,30.02,10.0,West,13.8,-,N/A,,Clear,270,2013-01-22 05:55:00